Location: Vesunti
(61.5000°N, 22.8333°E)
Time: 00:33:58
(UTC+00:00)

Envisat - Pass Details

Date: 17 February 2020
Orbit: 764 x 766 km, 98.1° (Epoch: 04 April)

Event Time Altitude Azimuth Distance (km) Brightness Sun altitude
Rises 05:12:04 0° 18° (NNE) 3,252 6.3 -7.2°
Reaches altitude 10° 05:14:26 10° 22° (NNE) 2,321 5.6 -6.9°
Maximum altitude 05:19:30 60° 103° (ESE) 877 3.7 -6.4°
Drops below altitude 10° 05:24:31 10° 183° (S) 2,304 5.6 -5.8°
Sets 05:26:51 0° 187° (S) 3,226 6.3 -5.5°
